{"data":{"norad_id":62430,"epoch":"2026-05-25T04:15:55.509120Z","epoch_age_seconds":59716,"freshness":"FRESH","line1":"1 62430U 24250A   26145.17772580  .00002607  00000+0  87019-4 0  9996","line2":"2 62430  97.2788  70.9063 0001024  57.3924 302.7417 15.31942080 79025","mean_motion":15.3194208,"eccentricity":0.0001024,"inclination_deg":97.2788,"raan_deg":70.9063,"arg_perigee_deg":57.3924,"mean_anomaly_deg":302.7417,"bstar":8.7019e-5,"rev_number":7902,"period_min":93.998331842938,"perigee_km":469.31721125214,"apogee_km":470.71971349083,"semimajor_km":6848.1554623715,"source":"CELESTRAK","updated_at":"2026-05-25T13:38:02.979871Z"}}